NOAA NWS Hourly Roundups by Site

Regional Weather Roundup for Omaha, NE

To Select Another Site Choose from List

Select Site:  

000
ASUS43 KOAX 251110
RWRNE

WEATHER ROUNDUP FOR NEBRASKA
NATIONAL WEATHER SERVICE OMAHA NE
600 AM CDT MON JUN 25 2018

NOTES: SATELLITE DATA IS BEING USED TO AUGMENT CLOUD COVER ABOVE
       12000 FEET.
       "FAIR" INDICATES FEW OR NO CLOUDS BELOW 12,000 FEET WITH NO
       SIGNIFICANT WEATHER AND/OR OBSTRUCTIONS TO VISIBILITY.


NEZ001>004-019>022-054>056-251200-
NEBRASKA PANHANDLE

CITY           SKY/WX    TMP DP  RH WIND       PRES   REMARKS
SCOTTSBLUFF    MOCLDY    55  55 100 W3        30.05S
ALLIANCE       MOCLDY    53  53 100 CALM      30.03S
CHADRON        CLOUDY    56  55  97 S6        30.03R
GORDON         FAIR      56  54  94 CALM      30.03S
KIMBALL        CLOUDY    54  52  93 NW3       30.08F
SIDNEY         MOCLDY    54  52  93 NW9       30.06S
$$

NEZ057>060-069>072-079>082-251200-
SOUTHWEST NEBRASKA

CITY           SKY/WX    TMP DP  RH WIND       PRES   REMARKS
NORTH PLATTE   RAIN      61  60  97 N10       29.97S FOG
IMPERIAL       CLOUDY    59  58  96 N8        29.98F
LEXINGTON      RAIN      62  60  94 NW6       29.92S
MCCOOK         CLOUDY    58  56  93 W3        29.94F
OGALLALA       LGT RAIN  60  58  94 NE3       30.00S
$$

NEZ005>010-023>029-035>040-094-251200-
NORTH CENTRAL NEBRASKA

CITY           SKY/WX    TMP DP  RH WIND       PRES   REMARKS
VALENTINE      CLOUDY    61  58  90 CALM      29.98R
AINSWORTH      DRIZZLE   60  58  91 W6        29.96F
BROKEN BOW     RAIN      62  61  96 NW9       29.91F
O`NEILL        LGT RAIN  66  65  97 CALM      29.95R
ORD            HVY RAIN  63  63 100 N8        29.88  VSB 1
THEDFORD       RAIN      61  60  95 NW5       29.99S
$$

NEZ041-046>049-061>064-073>077-083>087-251200-
SOUTH CENTRAL NEBRASKA

CITY           SKY/WX    TMP DP  RH WIND       PRES   REMARKS
GRAND ISLAND   CLOUDY    67  66  97 SE8       29.90R FOG
AURORA         LGT RAIN  68  68 100 SE8       29.90R
HASTINGS       LGT RAIN  64  63  96 SW6       29.91S
HEBRON         RAIN      68  66  93 SE7       29.89F
HOLDREGE       RAIN      61  61 100 NW5       29.91S
KEARNEY        CLOUDY    64  62  93 CALM      29.91R
YORK           CLOUDY    68  68 100 SE12      29.91S
$$

NEZ011>018-030>034-042>045-251200-
NORTHEAST NEBRASKA

CITY           SKY/WX    TMP DP  RH WIND       PRES   REMARKS
NORFOLK        CLOUDY    65  63  93 E9        29.93S
ALBION         CLOUDY    66  64  96 E14       29.92F
BLAIR          CLOUDY    66  64  93 SE7       29.95R
COLUMBUS       CLOUDY    66  64  93 E15       29.92F
FREMONT        CLOUDY    67  65  92 SE9       29.95R
TEKAMAH        CLOUDY    66  64  93 SE5       29.95R
WAYNE          CLOUDY    66  65  96 SE12      29.94R
$$

NEZ050>053-065>068-078-088>093-251200-
SOUTHEAST NEBRASKA

CITY           SKY/WX    TMP DP  RH WIND       PRES   REMARKS
LINCOLN        CLOUDY    70  66  87 E10       29.93S
OMAHA EPPLEY   CLOUDY    68  63  84 SE8       29.94S
BEATRICE       LGT RAIN  71  69  96 SE7       29.91S
FALLS CITY     MOCLDY    67  65  93 CALM      29.91F
NEBRASKA CITY  CLOUDY    66  66 100 E6        29.94F
PLATTSMOUTH    CLOUDY    66  64  94 E6        29.94R
$$

NEZ044-045-051>053-067-251200-
OMAHA AREA

CITY           SKY/WX    TMP DP  RH WIND       PRES   REMARKS
OMAHA EPPLEY   CLOUDY    68  63  84 SE8       29.94S
BLAIR          CLOUDY    66  64  93 SE7       29.95R
FREMONT        CLOUDY    67  65  92 SE9       29.95R
MILLARD        CLOUDY    69  65  89 SE6       29.96R
OFFUTT AFB     CLOUDY    67  64  91 E7        29.94R
PLATTSMOUTH    CLOUDY    66  64  94 E6        29.94R
WAHOO          CLOUDY    67  64  91 E8        29.95R
$$


 

View Past Reports for Omaha, NE.

Products Courtesy of NOAA-NWS
NWS Information Parsing Script by Ken True at Saratoga Weather - Script by SE Lincoln Weather.